DW1347 Weather Reports


time (UTC)temp
C
wind
direction
speed
KPH
gust
KPH
rain 1hr
cm
rain 24hr
cm
rain mn
cm
humidity
%
barometer
mb
20200922211729 21 251 3.2 4.8 0.00 0.00 0.00 27 1030.4
20200922211221 21 261 4.8 8.0 0.00 0.00 0.00 27 1030.5
20200922210713 21 247 8.0 11.3 0.00 0.00 0.00 26 1030.7
20200922210211 21 303 11.3 12.9 0.00 0.00 0.00 26 1030.4
20200922205708 22 235 8.0 11.3 0.00 0.00 0.00 24 1030.4
20200922205211 23 252 1.6 3.2 0.00 0.00 0.00 22 1030.2
20200922204704 23 343 6.4 8.0 0.00 0.00 0.00 22 1030.3
20200922204203 23 250 0.0 1.6 0.00 0.00 0.00 24 1030.3
20200922203700 23 220 1.6 1.6 0.00 0.00 0.00 24 1030.4
20200922203201 22 319 1.6 1.6 0.00 0.00 0.00 25 1030.3
20200922202659 22 261 0.0 1.6 0.00 0.00 0.00 24 1030.3
20200922202154 22 300 4.8 4.8 0.00 0.00 0.00 24 1030.4
20200922201653 22 137 1.6 3.2 0.00 0.00 0.00 25 1030.4
20200922201150 21 341 4.8 4.8 0.00 0.00 0.00 26 1030.5
20200922200649 21 232 3.2 4.8 0.00 0.00 0.00 26 1030.5
20200922200144 20 273 3.2 3.2 0.00 0.00 0.00 28 1030.9
20200922195640 20 235 3.2 4.8 0.00 0.00 0.00 26 1031.2
20200922195137 21 262 4.8 4.8 0.00 0.00 0.00 26 1031.0
20200922194637 21 249 1.6 1.6 0.00 0.00 0.00 25 1031.0
20200922194133 21 274 3.2 3.2 0.00 0.00 0.00 25 1031.0
20200922193633 22 251 0.0 1.6 0.00 0.00 0.00 25 1031.2
20200922193125 22 293 0.0 1.6 0.00 0.00 0.00 25 1031.4
20200922192622 21 243 3.2 4.8 0.00 0.00 0.00 25 1031.2
20200922192121 21 257 6.4 9.7 0.00 0.00 0.00 26 1031.3
20200922191615 21 163 3.2 4.8 0.00 0.00 0.00 26 1031.5
20200922191112 20 218 1.6 3.2 0.00 0.00 0.00 28 1031.7
20200922190610 19 111 4.8 4.8 0.00 0.00 0.00 30 1031.8
20200922190110 18 188 1.6 1.6 0.00 0.00 0.00 32 1031.9
20200922185608 17 255 3.2 3.2 0.00 0.00 0.00 33 1032.2
20200922185106 17 139 1.6 4.8 0.00 0.00 0.00 35 1031.9
20200922184613 17 76 4.8 12.9 0.00 0.00 0.00 34 1032.1
20200922184100 18 267 0.0 1.6 0.00 0.00 0.00 33 1032.1
20200922183559 18 234 1.6 1.6 0.00 0.00 0.00 32 1031.9
20200922183050 18 245 1.6 3.2 0.00 0.00 0.00 32 1031.9
20200922182549 18 241 3.2 4.8 0.00 0.00 0.00 30 1031.9
20200922182046 18 196 4.8 4.8 0.00 0.00 0.00 28 1031.8
20200922181558 19 182 4.8 4.8 0.00 0.00 0.00 27 1031.5
20200922181041 19 278 6.4 12.9 0.00 0.00 0.00 27 1031.8
20200922180530 19 285 4.8 8.0 0.00 0.00 0.00 27 1031.7
20200922180026 18 173 11.3 12.9 0.00 0.00 0.00 28 1031.8
20200922175534 18 229 6.4 8.0 0.00 0.00 0.00 30 1032.1
20200922175022 18 260 3.2 4.8 0.00 0.00 0.00 30 1031.9
20200922174528 19 213 4.8 9.7 0.00 0.00 0.00 29 1032.2
20200922174021 20 232 4.8 9.7 0.00 0.00 0.00 27 1032.3
20200922173510 21 265 0.0 0.0 0.00 0.00 0.00 23 1031.5
20200922173027 21 245 1.6 1.6 0.00 0.00 0.00 24 1031.8
20200922172506 21 248 1.6 1.6 0.00 0.00 0.00 24 1031.7
20200922172001 21 239 1.6 3.2 0.00 0.00 0.00 24 1031.4
20200922171454 22 258 4.8 4.8 0.00 0.00 0.00 23 1031.7
20200922170954 22 201 6.4 8.0 0.00 0.00 0.00 23 1031.7
20200922170455 23 304 4.8 4.8 0.00 0.00 0.00 22 1031.8
20200922165953 22 32 4.8 4.8 0.00 0.00 0.00 22 1031.9
20200922165443 22 246 1.6 3.2 0.00 0.00 0.00 22 1031.9
20200922164943 21 130 3.2 4.8 0.00 0.00 0.00 24 1031.9
20200922164443 22 321 4.8 8.0 0.00 0.00 0.00 24 1032.1
20200922163935 21 313 3.2 3.2 0.00 0.00 0.00 25 1031.9
20200922163431 21 283 0.0 0.0 0.00 0.00 0.00 26 1032.2
20200922162926 21 343 6.4 9.7 0.00 0.00 0.00 25 1032.1
20200922162417 21 227 1.6 1.6 0.00 0.00 0.00 26 1032.3
20200922161915 20 3 3.2 4.8 0.00 0.00 0.00 25 1032.3
20200922161411 21 294 4.8 4.8 0.00 0.00 0.00 26 1032.4
20200922160909 21 11 8.0 9.7 0.00 0.00 0.00 26 1032.6
20200922160405 21 288 1.6 3.2 0.00 0.00 0.00 27 1032.6
20200922155913 20 208 0.0 0.0 0.00 0.00 0.00 28 1032.6
20200922155401 20 10 1.6 1.6 0.00 0.00 0.00 27 1032.4
20200922154858 20 280 0.0 1.6 0.00 0.00 0.00 30 1032.6
20200922154358 20 329 1.6 1.6 0.00 0.00 0.00 32 1032.8
20200922153856 19 258 0.0 1.6 0.00 0.00 0.00 39 1032.4
20200922153352 19 233 0.0 0.0 0.00 0.00 0.00 35 1032.4
20200922152850 19 220 0.0 0.0 0.00 0.00 0.00 35 1032.7
20200922152349 17 218 0.0 0.0 0.00 0.00 0.00 37 1032.8
20200922151844 17 223 0.0 0.0 0.00 0.00 0.00 39 1032.4
20200922151343 16 238 0.0 0.0 0.00 0.00 0.00 40 1032.6
20200922150843 15 227 0.0 0.0 0.00 0.00 0.00 43 1032.6
20200922150332 14 224 0.0 0.0 0.00 0.00 0.00 46 1032.6
20200922145831 13 226 0.0 0.0 0.00 0.00 0.00 47 1032.7
20200922145332 12 229 0.0 0.0 0.00 0.00 0.00 53 1032.7
20200922144828 11 228 0.0 0.0 0.00 0.00 0.00 52 1032.7
20200922144332 10 241 0.0 0.0 0.00 0.00 0.00 55 1032.8
20200922143822 10 240 0.0 0.0 0.00 0.00 0.00 58 1032.8
20200922143317 9 240 0.0 0.0 0.00 0.00 0.00 55 1032.7
20200922142818 8 243 0.0 0.0 0.00 0.00 0.00 57 1032.8
20200922142311 8 242 0.0 0.0 0.00 0.00 0.00 59 1032.9
20200922141803 8 240 0.0 0.0 0.00 0.00 0.00 59 1032.8
20200922141259 7 239 0.0 0.0 0.00 0.00 0.00 58 1032.7
20200922140802 8 240 0.0 0.0 0.00 0.00 0.00 58 1032.8
20200922140254 8 218 0.0 0.0 0.00 0.00 0.00 57 1032.7
20200922135752 8 210 1.6 1.6 0.00 0.00 0.00 57 1032.7
20200922135259 8 241 0.0 0.0 0.00 0.00 0.00 57 1032.7
20200922134746 8 226 0.0 0.0 0.00 0.00 0.00 56 1032.7
20200922134242 8 209 1.6 1.6 0.00 0.00 0.00 57 1032.8
20200922133737 8 225 0.0 0.0 0.00 0.00 0.00 58 1032.8
20200922133237 8 241 0.0 0.0 0.00 0.00 0.00 56 1032.6
20200922132732 8 240 0.0 0.0 0.00 0.00 0.00 56 1032.8
20200922132227 8 232 0.0 0.0 0.00 0.00 0.00 55 1032.6
20200922131724 8 236 0.0 0.0 0.00 0.00 0.00 55 1032.4
20200922131228 8 205 0.0 1.6 0.00 0.00 0.00 54 1032.6
20200922130716 8 240 0.0 0.0 0.00 0.00 0.00 56 1032.4
20200922130211 8 225 0.0 0.0 0.00 0.00 0.00 57 1032.4
20200922125706 8 238 0.0 0.0 0.00 0.00 0.00 56 1032.4
20200922125207 7 216 1.6 1.6 0.00 0.00 0.00 56 1032.3
20200922124707 8 235 0.0 0.0 0.00 0.00 0.00 57 1032.4
20200922124203 7 225 1.6 1.6 0.00 0.00 0.00 57 1032.6
20200922123701 8 238 0.0 0.0 0.00 0.00 0.00 56 1032.4
20200922123156 8 219 1.6 1.6 0.00 0.00 0.00 56 1032.3
20200922122656 7 236 0.0 0.0 0.00 0.00 0.00 57 1032.8
20200922122146 7 238 0.0 0.0 0.00 0.00 0.00 58 1032.7
20200922121643 7 220 0.0 1.6 0.00 0.00 0.00 57 1032.4
20200922121143 7 241 0.0 0.0 0.00 0.00 0.00 58 1032.4
20200922120643 7 244 0.0 0.0 0.00 0.00 0.00 58 1032.2
20200922120140 7 197 1.6 1.6 0.00 0.00 0.00 58 1032.4
20200922115640 7 240 0.0 0.0 0.00 0.00 0.00 58 1032.3
20200922115136 7 211 1.6 1.6 0.00 0.00 0.00 59 1032.3
20200922114635 7 236 0.0 0.0 0.00 0.00 0.00 63 1032.6
20200922114129 6 255 0.0 0.0 0.00 0.00 0.00 62 1032.7
20200922113623 6 226 0.0 0.0 0.00 0.00 0.00 61 1032.4
20200922113122 6 246 0.0 0.0 0.00 0.00 0.00 62 1032.4
20200922112620 7 243 0.0 0.0 0.00 0.00 0.00 60 1032.3
20200922112119 7 234 0.0 0.0 0.00 0.00 0.00 60 1032.2
20200922111616 7 225 0.0 0.0 0.00 0.00 0.00 60 1032.2
20200922111118 7 234 0.0 0.0 0.00 0.00 0.00 60 1032.3
20200922110620 7 236 0.0 0.0 0.00 0.00 0.00 61 1032.1
20200922110112 7 242 0.0 0.0 0.00 0.00 0.00 60 1032.1
20200922105609 7 228 0.0 0.0 0.00 0.00 0.00 60 1032.3
20200922105104 7 257 0.0 0.0 0.00 0.00 0.00 61 1032.4
20200922104601 7 272 0.0 0.0 0.00 0.00 0.00 61 1031.9
20200922104112 7 216 0.0 1.6 0.00 0.00 0.00 61 1032.4
20200922103557 7 228 0.0 0.0 0.00 0.00 0.00 62 1032.3
20200922103054 7 235 0.0 0.0 0.00 0.00 0.00 61 1032.3
20200922102555 7 250 0.0 0.0 0.00 0.00 0.00 62 1032.3
20200922102051 7 235 0.0 0.0 0.00 0.00 0.00 61 1032.1
20200922101549 7 232 0.0 0.0 0.00 0.00 0.00 62 1032.2
20200922101043 7 245 0.0 0.0 0.00 0.00 0.00 62 1032.3
20200922100546 7 238 0.0 0.0 0.00 0.00 0.00 61 1032.2
20200922100034 6 237 0.0 0.0 0.00 0.00 0.00 63 1032.2
20200922095530 6 235 0.0 0.0 0.00 0.00 0.00 63 1032.3
20200922095026 7 236 0.0 0.0 0.00 0.00 0.00 62 1032.3
20200922094522 7 242 0.0 0.0 0.00 0.00 0.00 61 1032.3
20200922094021 7 234 0.0 0.0 0.00 0.00 0.00 61 1031.9
20200922093521 7 226 0.0 1.6 0.00 0.00 0.00 61 1032.1
20200922093024 7 236 0.0 0.0 0.00 0.00 0.00 62 1032.3
20200922092510 7 251 0.0 0.0 0.00 0.00 0.00 62 1032.3
20200922092011 7 245 0.0 0.0 0.00 0.00 0.00 60 1032.6
20200922091512 7 207 0.0 0.0 0.00 0.00 0.00 61 1031.9
20200922091004 7 240 0.0 0.0 0.00 0.00 0.00 61 1032.2
20200922090459 7 222 0.0 1.6 0.00 0.00 0.00 60 1032.2
20200922085956 7 246 0.0 0.0 0.00 0.00 0.00 61 1032.1
20200922085454 7 245 0.0 0.0 0.00 0.00 0.00 60 1032.3
20200922084950 7 223 0.0 0.0 0.00 0.00 0.00 59 1032.2
20200922084445 7 233 0.0 0.0 0.00 0.00 0.00 60 1032.3
20200922083942 7 241 0.0 0.0 0.00 0.00 0.00 60 1032.2
20200922083436 7 247 0.0 0.0 0.00 0.00 0.00 60 1032.1
20200922082933 7 242 0.0 0.0 0.00 0.00 0.00 59 1032.2
20200922082429 7 225 0.0 0.0 0.00 0.00 0.00 59 1032.1
20200922081923 7 240 0.0 0.0 0.00 0.00 0.00 59 1032.3
20200922081423 7 239 0.0 0.0 0.00 0.00 0.00 60 1032.2
20200922080923 7 253 0.0 0.0 0.00 0.00 0.00 60 1032.1
20200922080420 7 245 0.0 0.0 0.00 0.00 0.00 59 1032.1
20200922075917 7 242 0.0 0.0 0.00 0.00 0.00 60 1032.4
20200922075418 7 250 0.0 0.0 0.00 0.00 0.00 60 1032.2
20200922074911 7 252 0.0 0.0 0.00 0.00 0.00 59 1032.2
20200922074410 7 239 0.0 0.0 0.00 0.00 0.00 59 1032.2
20200922073909 7 244 1.6 1.6 0.00 0.00 0.00 60 1032.2
20200922073400 7 211 1.6 1.6 0.00 0.00 0.00 60 1032.3
20200922072854 7 238 0.0 0.0 0.00 0.00 0.00 59 1032.2
20200922072353 7 234 0.0 0.0 0.00 0.00 0.00 60 1032.3
20200922071847 7 247 0.0 0.0 0.00 0.00 0.00 61 1032.4
20200922071346 7 205 1.6 1.6 0.00 0.00 0.00 60 1032.6
20200922070845 7 235 0.0 0.0 0.00 0.00 0.00 60 1032.3
20200922070342 7 224 0.0 1.6 0.00 0.00 0.00 59 1032.2
20200922065839 7 220 0.0 0.0 0.00 0.00 0.00 60 1032.2
20200922065331 8 241 0.0 0.0 0.00 0.00 0.00 59 1032.2
20200922064830 8 249 0.0 0.0 0.00 0.00 0.00 59 1032.3
20200922064328 8 233 0.0 0.0 0.00 0.00 0.00 58 1031.9
20200922063832 8 227 0.0 1.6 0.00 0.00 0.00 57 1032.2
20200922063329 8 215 0.0 0.0 0.00 0.00 0.00 57 1032.2
20200922062826 8 222 0.0 0.0 0.00 0.00 0.00 57 1032.3
20200922062325 8 211 0.0 1.6 0.00 0.00 0.00 57 1032.2
20200922061819 8 248 0.0 0.0 0.00 0.00 0.00 56 1032.3
20200922061313 9 242 0.0 0.0 0.00 0.00 0.00 55 1032.6
20200922060808 10 246 0.0 0.0 0.00 0.00 0.00 54 1032.6
20200922060307 10 241 0.0 0.0 0.00 0.00 0.00 53 1032.4
20200922055801 9 226 0.0 0.0 0.00 0.00 0.00 54 1032.7
20200922055253 9 243 0.0 0.0 0.00 0.00 0.00 54 1032.4
20200922054750 10 244 0.0 0.0 0.00 0.00 0.00 53 1032.6
20200922054249 10 235 0.0 0.0 0.00 0.00 0.00 53 1032.7
20200922053746 10 235 0.0 0.0 0.00 0.00 0.00 52 1032.7
20200922053245 11 251 0.0 0.0 0.00 0.00 0.00 51 1032.7
20200922052745 11 235 0.0 0.0 0.00 0.00 0.00 49 1032.7
20200922052240 11 239 3.2 3.2 0.00 0.00 0.00 48 1032.6
20200922051733 11 241 0.0 0.0 0.00 0.00 0.00 48 1032.6
20200922051233 11 216 0.0 1.6 0.00 0.00 0.00 47 1032.6
20200922050728 12 250 1.6 1.6 0.00 0.00 0.00 46 1032.6
20200922050228 12 178 1.6 1.6 0.00 0.00 0.00 45 1032.4
20200922045724 11 240 0.0 0.0 0.00 0.00 0.00 47 1032.4
20200922045221 12 243 0.0 0.0 0.00 0.00 0.00 46 1032.3
20200922044719 13 242 0.0 0.0 0.00 0.00 0.00 45 1032.7
20200922044216 13 217 0.0 1.6 0.00 0.00 0.00 42 1032.4
20200922043718 13 181 1.6 1.6 0.00 0.00 0.00 43 1032.4
20200922043215 12 231 0.0 0.0 0.00 0.00 0.00 44 1032.4
20200922042712 13 235 0.0 0.0 0.00 0.00 0.00 43 1032.7
20200922042208 12 227 0.0 0.0 0.00 0.00 0.00 44 1032.7
20200922041704 12 240 0.0 0.0 0.00 0.00 0.00 44 1032.4
20200922041201 13 240 0.0 0.0 0.00 0.00 0.00 43 1032.4
20200922040659 13 230 0.0 0.0 0.00 0.00 0.00 43 1032.8
20200922040159 12 269 1.6 1.6 0.00 0.00 0.00 45 1032.2
20200922035654 12 238 0.0 0.0 0.00 0.00 0.00 45 1032.6
20200922035152 12 234 0.0 0.0 0.00 0.00 0.00 45 1032.9
20200922034651 12 225 0.0 0.0 0.00 0.00 0.00 46 1032.7
20200922034144 12 223 0.0 1.6 0.00 0.00 0.00 46 1032.6
20200922033641 12 253 0.0 0.0 0.00 0.00 0.00 45 1032.6
20200922033139 13 240 0.0 0.0 0.00 0.00 0.00 44 1032.8
20200922032637 13 251 0.0 1.6 0.00 0.00 0.00 42 1032.7
20200922032135 13 227 0.0 0.0 0.00 0.00 0.00 42 1033.2
20200922031631 12 150 3.2 3.2 0.00 0.00 0.00 43 1033.1
20200922031127 12 242 0.0 0.0 0.00 0.00 0.00 46 1032.8
20200922030624 12 244 0.0 0.0 0.00 0.00 0.00 45 1032.7
20200922030121 12 216 1.6 1.6 0.00 0.00 0.00 45 1032.8
20200922025620 12 247 0.0 0.0 0.00 0.00 0.00 45 1032.6
20200922025118 12 227 0.0 0.0 0.00 0.00 0.00 44 1032.7
20200922024617 13 214 1.6 1.6 0.00 0.00 0.00 44 1032.4
20200922024116 13 241 0.0 0.0 0.00 0.00 0.00 44 1032.9
20200922023612 13 263 0.0 0.0 0.00 0.00 0.00 44 1032.4
20200922023103 13 264 1.6 1.6 0.00 0.00 0.00 43 1032.7
20200922022558 13 230 0.0 1.6 0.00 0.00 0.00 43 1032.6
20200922022058 13 260 0.0 0.0 0.00 0.00 0.00 43 1032.6
20200922021555 13 254 0.0 0.0 0.00 0.00 0.00 42 1032.4
20200922021054 13 242 0.0 0.0 0.00 0.00 0.00 42 1032.3
20200922020554 14 240 0.0 0.0 0.00 0.00 0.00 40 1032.3
20200922020052 14 257 0.0 0.0 0.00 0.00 0.00 40 1032.3
20200922015550 15 208 1.6 1.6 0.00 0.00 0.00 40 1032.3
20200922015046 15 227 0.0 0.0 0.00 0.00 0.00 39 1032.2
20200922014545 15 233 0.0 0.0 0.00 0.00 0.00 38 1032.1
20200922014043 16 201 1.6 1.6 0.00 0.00 0.00 37 1032.4
20200922013534 16 221 0.0 1.6 0.00 0.00 0.00 37 1032.2
20200922013033 15 127 3.2 3.2 0.00 0.00 0.00 37 1032.4
20200922012522 15 216 0.0 0.0 0.00 0.00 0.00 37 1032.3
20200922012020 16 240 0.0 0.0 0.00 0.00 0.00 36 1032.1
20200922011516 16 240 0.0 0.0 0.00 0.00 0.00 36 1032.1
20200922011009 17 243 0.0 0.0 0.00 0.00 0.00 34 1032.2
20200922010506 17 219 1.6 1.6 0.00 0.00 0.00 33 1031.9
20200922005958 18 216 1.6 1.6 0.00 0.00 0.00 33 1032.2
20200922005456 18 237 0.0 0.0 0.00 0.00 0.00 32 1032.1
20200922004954 18 240 1.6 1.6 0.00 0.00 0.00 32 1031.9
20200922004450 18 226 1.6 1.6 0.00 0.00 0.00 32 1031.7
20200922003947 18 225 1.6 1.6 0.00 0.00 0.00 31 1031.8
20200922003442 18 224 0.0 1.6 0.00 0.00 0.00 31 1031.8
20200922002938 19 245 0.0 0.0 0.00 0.00 0.00 31 1031.7
20200922002438 20 188 3.2 4.8 0.00 0.00 0.00 29 1031.9
20200922001930 20 169 3.2 3.2 0.00 0.00 0.00 30 1031.5
20200922001425 20 247 0.0 0.0 0.00 0.00 0.00 29 1031.7
20200922000926 20 252 0.0 1.6 0.00 0.00 0.00 29 1031.8
20200922000424 20 252 1.6 1.6 0.00 0.00 0.00 29 1031.5
20200921235924 20 259 0.0 1.6 0.00 0.00 0.00 29 1031.5
20200921235423 20 244 3.2 4.8 0.00 0.00 0.00 28 1031.4
20200921234917 20 278 3.2 4.8 0.00 0.00 0.00 29 1031.8
20200921234418 20 277 3.2 3.2 0.00 0.00 0.00 28 1031.7
20200921233912 20 255 4.8 4.8 0.00 0.00 0.00 28 1031.8
20200921233404 20 258 6.4 8.0 0.00 0.00 0.00 28 1031.7
20200921232902 20 271 4.8 4.8 0.00 0.00 0.00 28 1031.8
20200921232401 21 259 6.4 8.0 0.00 0.00 0.00 27 1031.5
20200921231858 21 278 9.7 11.3 0.00 0.00 0.00 26 1031.3
20200921231353 21 281 3.2 3.2 0.00 0.00 0.00 26 1031.4
20200921230851 22 266 6.4 8.0 0.00 0.00 0.00 25 1031.4
20200921230351 22 242 3.2 3.2 0.00 0.00 0.00 26 1031.5
20200921225850 22 250 8.0 9.7 0.00 0.00 0.00 26 1031.3
20200921225346 22 247 1.6 3.2 0.00 0.00 0.00 26 1031.3
20200921224845 22 32 6.4 9.7 0.00 0.00 0.00 25 1031.4
20200921224352 21 289 4.8 4.8 0.00 0.00 0.00 26 1031.5
20200921223838 21 255 3.2 4.8 0.00 0.00 0.00 27 1031.2
20200921223333 21 245 4.8 4.8 0.00 0.00 0.00 27 1031.2
20200921222832 21 249 3.2 3.2 0.00 0.00 0.00 27 1031.4
20200921222326 21 250 0.0 0.0 0.00 0.00 0.00 26 1031.7
20200921221826 21 255 1.6 1.6 0.00 0.00 0.00 26 1031.4
20200921221322 21 270 0.0 1.6 0.00 0.00 0.00 26 1031.4
20200921220818 21 277 3.2 4.8 0.00 0.00 0.00 26 1031.5
20200921220313 22 249 0.0 0.0 0.00 0.00 0.00 25 1031.5
20200921215811 21 306 1.6 1.6 0.00 0.00 0.00 25 1031.7
20200921215311 21 43 1.6 3.2 0.00 0.00 0.00 25 1031.4
20200921214809 21 317 1.6 3.2 0.00 0.00 0.00 26 1031.5
20200921214306 22 250 3.2 4.8 0.00 0.00 0.00 25 1031.3
20200921213806 21 294 8.0 9.7 0.00 0.00 0.00 25 1031.5
20200921213304 21 358 12.9 17.7 0.00 0.00 0.00 25 1031.8
20200921212758 21 252 12.9 14.5 0.00 0.00 0.00 27 1031.7
20200921212258 21 295 9.7 11.3 0.00 0.00 0.00 27 1031.7